• In Netherlands
  • List of Countries
  • For 7 days
  • Water Temperature
  • Satellite Maps
  • Weather Map
  • Weather Widgets
  • user-avatar
    Login

    Hourly Weather Solden

    Today, 29 March, Wednesday

    Time Temperature Precipitation Wind Pressure Humidity
    00:00 -1°C° 0 mm 1 mps 584 mmHg 91%
    01:00 -2°C° 0 mm 2 mps 585 mmHg 91%
    02:00 -3°C° 0 mm 2 mps 585 mmHg 91%
    03:00 -3°C° 0 mm 2 mps 585 mmHg 92%
    04:00 -3°C° 0 mm 2 mps 585 mmHg 92%
    05:00 -3°C° 0 mm 2 mps 585 mmHg 91%
    06:00 -3°C° 0 mm 2 mps 585 mmHg 91%
    07:00 -3°C° 0 mm 2 mps 585 mmHg 90%
    08:00 +1°C° 0 mm 1 mps 586 mmHg 84%
    09:00 +3°C° 0 mm 1 mps 587 mmHg 77%
    10:00 +5°C° 0 mm 1 mps 588 mmHg 71%
    11:00 +6°C° 0 mm 1 mps 588 mmHg 67%
    12:00 +7°C° 0 mm 1 mps 588 mmHg 64%
    13:00 +8°C° 0 mm 1 mps 589 mmHg 61%
    14:00 +7°C° 0 mm 1 mps 588 mmHg 62%
    15:00 +7°C° 0 mm 1 mps 588 mmHg 63%
    16:00 +7°C° 0 mm 1 mps 588 mmHg 64%
    17:00 +5°C° 0 mm 1 mps 587 mmHg 71%
    18:00 +3°C° 0 mm 1 mps 586 mmHg 78%
    19:00 +1°C° 0 mm 1 mps 585 mmHg 85%
    20:00 0°C° 0 mm 1 mps 585 mmHg 86%
    21:00 0°C° 0 mm 1 mps 585 mmHg 87%
    22:00 0°C° 0 mm 1 mps 586 mmHg 87%
    23:00 -1°C° 0 mm 1 mps 586 mmHg 88%

    Tomorrow, 30 March, Thursday

    Time Temperature Precipitation Wind Pressure Humidity
    00:00 -1°C° 0 mm 1 mps 585 mmHg 89%
    01:00 -1°C° 0 mm 1 mps 585 mmHg 89%
    02:00 -2°C° 0 mm 1 mps 585 mmHg 89%
    03:00 -3°C° 0 mm 1 mps 584 mmHg 89%
    04:00 -3°C° 0 mm 1 mps 584 mmHg 89%
    05:00 -2°C° 0 mm 1 mps 584 mmHg 86%
    06:00 -2°C° 0 mm 1 mps 585 mmHg 82%
    07:00 -1°C° 0 mm 1 mps 585 mmHg 79%
    08:00 +1°C° 0 mm 1 mps 587 mmHg 72%
    09:00 +4°C° 0 mm 1 mps 588 mmHg 64%
    10:00 +7°C° 0 mm 1 mps 589 mmHg 57%
    11:00 +7°C° 0 mm 1 mps 589 mmHg 55%
    12:00 +8°C° 0 mm 1 mps 589 mmHg 53%
    13:00 +9°C° 0 mm 1 mps 590 mmHg 52%
    14:00 +9°C° 0 mm 1 mps 589 mmHg 54%
    15:00 +8°C° 0 mm 1 mps 589 mmHg 56%
    16:00 +8°C° 0 mm 1 mps 589 mmHg 59%
    17:00 +5°C° 0 mm 1 mps 587 mmHg 68%
    18:00 +3°C° 0 mm 1 mps 586 mmHg 78%
    19:00 +1°C° 0 mm 1 mps 585 mmHg 88%
    20:00 0°C° 0 mm 1 mps 585 mmHg 90%
    21:00 0°C° 0 mm 1 mps 585 mmHg 92%
    22:00 0°C° 0 mm 1 mps 585 mmHg 93%
    23:00 0°C° 0 mm 1 mps 585 mmHg 94%

    Day after tomorrow, 31 March, Friday

    Time Temperature Precipitation Wind Pressure Humidity
    00:00 0°C° 0 mm 1 mps 585 mmHg 95%
    01:00 0°C° 0 mm 1 mps 585 mmHg 96%
    02:00 -1°C° 0 mm 1 mps 585 mmHg 96%
    03:00 -1°C° 0 mm 1 mps 584 mmHg 96%
    04:00 -1°C° 0 mm 1 mps 584 mmHg 96%
    05:00 -1°C° 0 mm 1 mps 584 mmHg 95%
    06:00 0°C° 0 mm 1 mps 584 mmHg 94%
    07:00 0°C° 0 mm 1 mps 584 mmHg 93%
    08:00 +2°C° 0 mm 1 mps 585 mmHg 84%
    09:00 +4°C° 0 mm 1 mps 585 mmHg 74%
    10:00 +5°C° 0 mm 2 mps 586 mmHg 65%
    11:00 +5°C° 0 mm 2 mps 586 mmHg 62%
    12:00 +6°C° 0 mm 2 mps 586 mmHg 60%
    13:00 +7°C° 0 mm 2 mps 586 mmHg 57%
    14:00 +6°C° 0 mm 2 mps 585 mmHg 60%
    15:00 +6°C° 0 mm 2 mps 585 mmHg 62%
    16:00 +6°C° 0 mm 2 mps 584 mmHg 64%
    17:00 +4°C° 0 mm 2 mps 583 mmHg 74%
    18:00 +2°C° 0 mm 2 mps 582 mmHg 83%
    19:00 +1°C° 0 mm 1 mps 581 mmHg 92%
    20:00 +1°C° 0 mm 1 mps 581 mmHg 93%
    21:00 0°C° 0 mm 1 mps 581 mmHg 95%
    22:00 0°C° 0 mm 1 mps 581 mmHg 96%
    23:00 0°C° 0 mm 1 mps 581 mmHg 96%

    1 April, Saturday

    Time Temperature Precipitation Wind Pressure Humidity
    00:00 -1°C° 0 mm 1 mps 581 mmHg 96%
    01:00 -1°C° 0 mm 1 mps 580 mmHg 96%
    02:00 -1°C° 0 mm 1 mps 580 mmHg 96%
    03:00 -1°C° 0 mm 1 mps 580 mmHg 95%
    04:00 -1°C° 0 mm 1 mps 579 mmHg 95%
    05:00 -1°C° 0 mm 1 mps 579 mmHg 93%
    06:00 -1°C° 0 mm 1 mps 579 mmHg 91%
    07:00 0°C° 0 mm 1 mps 580 mmHg 89%
    08:00 +1°C° 0 mm 1 mps 580 mmHg 81%
    09:00 +2°C° 0 mm 2 mps 581 mmHg 74%
    10:00 +3°C° 0 mm 2 mps 581 mmHg 66%
    11:00 +4°C° 0.1 mm 2 mps 581 mmHg 63%
    12:00 +5°C° 0.1 mm 2 mps 581 mmHg 60%
    13:00 +5°C° 0.1 mm 2 mps 581 mmHg 58%
    14:00 +5°C° 0.2 mm 2 mps 581 mmHg 59%
    15:00 +5°C° 0.2 mm 2 mps 581 mmHg 61%
    16:00 +4°C° 0.2 mm 2 mps 580 mmHg 63%
    17:00 +3°C° 0.1 mm 2 mps 580 mmHg 73%
    18:00 +2°C° 0.1 mm 1 mps 579 mmHg 82%
    19:00 0°C° 0.1 mm 1 mps 578 mmHg 91%
    20:00 0°C° 0 mm 1 mps 579 mmHg 93%
    21:00 -1°C° 0 mm 1 mps 579 mmHg 94%
    22:00 -1°C° 0 mm 1 mps 579 mmHg 95%
    23:00 -2°C° 0 mm 1 mps 579 mmHg 95%

    2 April, Sunday

    Time Temperature Precipitation Wind Pressure Humidity
    00:00 -2°C° 0 mm 1 mps 579 mmHg 95%
    01:00 -2°C° 0 mm 1 mps 579 mmHg 95%
    02:00 -2°C° 0 mm 1 mps 579 mmHg 95%
    03:00 -3°C° 0 mm 1 mps 579 mmHg 94%
    04:00 -3°C° 0 mm 1 mps 579 mmHg 94%
    05:00 -2°C° 0 mm 1 mps 579 mmHg 90%
    06:00 -3°C° 0 mm 0 mps 580 mmHg 87%
    07:00 -2°C° 0 mm 0 mps 580 mmHg 83%
    08:00 0°C° 0 mm 0 mps 581 mmHg 73%
    09:00 +3°C° 0 mm 1 mps 582 mmHg 64%
    10:00 +5°C° 0 mm 1 mps 584 mmHg 54%
    11:00 +6°C° 0.1 mm 1 mps 584 mmHg 53%
    12:00 +6°C° 0.1 mm 1 mps 584 mmHg 52%
    13:00 +7°C° 0.1 mm 1 mps 584 mmHg 51%
    14:00 +6°C° 0.2 mm 1 mps 584 mmHg 55%
    15:00 +6°C° 0.2 mm 1 mps 583 mmHg 58%
    16:00 +5°C° 0.2 mm 1 mps 583 mmHg 62%
    17:00 +3°C° 0.3 mm 1 mps 583 mmHg 71%
    18:00 +2°C° 0.3 mm 1 mps 582 mmHg 79%
    19:00 0°C° 0.3 mm 1 mps 581 mmHg 88%
    20:00 0°C° 0.3 mm 1 mps 582 mmHg 90%
    21:00 -2°C° 0.3 mm 0 mps 582 mmHg 92%
    22:00 -2°C° 0.3 mm 0 mps 582 mmHg 94%
    23:00 -2°C° 0.3 mm 0 mps 582 mmHg 94%

    3 April, Monday

    Time Temperature Precipitation Wind Pressure Humidity
    00:00 -2°C° 0.3 mm 0 mps 582 mmHg 94%
    01:00 -3°C° 0.3 mm 0 mps 582 mmHg 94%
    02:00 -2°C° 0.3 mm 1 mps 581 mmHg 93%
    03:00 -2°C° 0.3 mm 1 mps 581 mmHg 92%
    04:00 -2°C° 0.3 mm 1 mps 581 mmHg 91%
    05:00 -1°C° 0.3 mm 1 mps 581 mmHg 89%
    06:00 -1°C° 0.3 mm 1 mps 582 mmHg 86%
    07:00 0°C° 0.3 mm 1 mps 582 mmHg 84%
    08:00 +1°C° 0.4 mm 1 mps 583 mmHg 79%
    09:00 +2°C° 0.4 mm 1 mps 583 mmHg 74%
    10:00 +4°C° 0.4 mm 1 mps 584 mmHg 69%
    11:00 +4°C° 0.5 mm 1 mps 584 mmHg 68%
    12:00 +4°C° 0.5 mm 1 mps 584 mmHg 68%
    13:00 +5°C° 0.5 mm 1 mps 584 mmHg 67%
    14:00 +4°C° 0.6 mm 1 mps 583 mmHg 69%
    15:00 +4°C° 0.6 mm 1 mps 583 mmHg 71%
    16:00 +4°C° 0.6 mm 1 mps 583 mmHg 73%
    17:00 +3°C° 0.7 mm 1 mps 582 mmHg 77%
    18:00 +1°C° 0.7 mm 1 mps 581 mmHg 82%
    19:00 0°C° 0.7 mm 1 mps 581 mmHg 87%
    20:00 0°C° 0.5 mm 1 mps 581 mmHg 87%
    21:00 -1°C° 0.5 mm 1 mps 581 mmHg 88%
    22:00 -1°C° 0.5 mm 1 mps 581 mmHg 88%
    23:00 -1°C° 0.3 mm 1 mps 581 mmHg 89%
    Show more